TimeEDT,TemperatureF,Dew PointF,Humidity,Sea Level PressureIn,VisibilityMPH,Wind Direction,Wind SpeedMPH,Gust SpeedMPH,PrecipitationIn,Events,Conditions,WindDirDegrees,DateUTC
12:53 AM,48.9,46.9,93,30.06,10.0,Calm,Calm,-,N/A,,Clear,0,2013-07-25 04:53:00
1:53 AM,48.0,46.0,93,30.06,10.0,Calm,Calm,-,N/A,,Clear,0,2013-07-25 05:53:00
2:53 AM,48.0,46.0,93,30.05,10.0,Calm,Calm,-,N/A,,Clear,0,2013-07-25 06:53:00
3:35 AM,46.4,44.6,93,30.05,5.0,Calm,Calm,-,N/A,,Scattered Clouds,0,2013-07-25 07:35:00
3:44 AM,46.4,44.6,93,30.05,10.0,WSW,4.6,-,N/A,,Mostly Cloudy,250,2013-07-25 07:44:00
3:53 AM,48.0,46.0,93,30.05,10.0,WSW,3.5,-,N/A,,Overcast,250,2013-07-25 07:53:00
4:53 AM,48.0,46.9,96,30.05,2.5,Calm,Calm,-,N/A,,Overcast,0,2013-07-25 08:53:00
5:00 AM,48.2,46.4,93,30.05,0.8,WSW,3.5,-,N/A,,Overcast,250,2013-07-25 09:00:00
5:06 AM,48.2,46.4,93,30.05,0.2,SW,3.5,-,N/A,Fog,Fog,230,2013-07-25 09:06:00
5:53 AM,48.0,46.9,96,30.07,0.2,Calm,Calm,-,N/A,Fog,Fog,0,2013-07-25 09:53:00
6:45 AM,48.2,48.2,100,30.09,0.8,West,3.5,-,N/A,,Mist,280,2013-07-25 10:45:00
6:53 AM,50.0,48.0,93,30.09,1.8,Calm,Calm,-,N/A,,Overcast,0,2013-07-25 10:53:00
7:01 AM,50.0,48.2,94,30.09,0.5,West,3.5,-,N/A,Fog,Fog,280,2013-07-25 11:01:00
7:53 AM,51.1,48.9,92,30.09,0.5,Calm,Calm,-,N/A,Fog,Fog,0,2013-07-25 11:53:00
8:26 AM,51.8,50.0,94,30.10,2.0,Calm,Calm,-,N/A,,Overcast,0,2013-07-25 12:26:00
8:49 AM,51.8,51.8,100,30.11,8.0,Calm,Calm,-,N/A,,Mostly Cloudy,0,2013-07-25 12:49:00
8:53 AM,53.1,52.0,96,30.12,10.0,Calm,Calm,-,N/A,,Mostly Cloudy,0,2013-07-25 12:53:00
9:05 AM,53.6,51.8,94,30.10,10.0,Calm,Calm,-,N/A,,Scattered Clouds,0,2013-07-25 13:05:00
9:53 AM,62.1,51.1,67,30.10,10.0,Calm,Calm,-,N/A,,Clear,0,2013-07-25 13:53:00
10:53 AM,66.0,48.0,52,30.10,10.0,NE,10.4,-,N/A,,Clear,50,2013-07-25 14:53:00
11:53 AM,68.0,46.0,45,30.10,10.0,East,11.5,17.3,N/A,,Clear,80,2013-07-25 15:53:00
12:53 PM,70.0,48.9,47,30.10,10.0,Variable,6.9,17.3,N/A,,Clear,0,2013-07-25 16:53:00
1:53 PM,72.0,48.9,44,30.09,10.0,NE,9.2,-,N/A,,Clear,40,2013-07-25 17:53:00
2:53 PM,73.0,48.0,41,30.08,10.0,North,8.1,-,N/A,,Clear,10,2013-07-25 18:53:00
3:53 PM,73.9,48.0,40,30.07,10.0,NNE,6.9,-,N/A,,Clear,30,2013-07-25 19:53:00
4:53 PM,73.9,48.9,41,30.06,10.0,North,11.5,17.3,N/A,,Clear,10,2013-07-25 20:53:00
5:53 PM,73.0,48.9,42,30.06,10.0,North,10.4,-,N/A,,Clear,10,2013-07-25 21:53:00
6:53 PM,71.1,50.0,47,30.07,10.0,North,8.1,-,N/A,,Clear,10,2013-07-25 22:53:00
7:53 PM,68.0,52.0,56,30.09,10.0,North,3.5,-,N/A,,Clear,360,2013-07-25 23:53:00
8:53 PM,62.1,51.1,67,30.09,10.0,NE,4.6,-,N/A,,Clear,50,2013-07-26 00:53:00
9:53 PM,62.1,52.0,70,30.10,10.0,ENE,3.5,-,N/A,,Clear,70,2013-07-26 01:53:00
10:53 PM,57.9,53.1,84,30.10,10.0,West,3.5,-,N/A,,Clear,260,2013-07-26 02:53:00
11:53 PM,55.9,52.0,87,30.11,10.0,SW,5.8,-,N/A,,Clear,220,2013-07-26 03:53:00